Torna al catalogo

ATLAS 5 CENTAUR DEB

LostHEO
NORAD 44004·DEBRIS·🇺🇸 United States

Lanciato Sep 17, 2014 da Cape Canaveral Space Force Station

Loading…

Prossimi Passaggi (prossime 24 ore)

TLE

ObsoletoSource: Space-Track

Epoca: Mar 6, 2021, 22:00 UTC

1 44004U 14055BK  21065.91709176 -.00000164  00000-0  00000+0 0  9992
2 44004  21.7227 314.5348 4840963 225.9353  82.2483  1.94624874 17679

Traccia ATLAS 5 CENTAUR DEB in tempo reale con AllMySat

Download on the App Store